Regional Weather Roundup
Issued by NWS Charleston, SC

Current Version | Previous Version | Graphics & Text | Print | Product List | Glossary On
Versions: 1 2 3 4 5 6 7 8 9 10 11 12 13 14 15 16 17 18 19 20 21 22 23 24 25 26 27 28 29 30 31 32 33 34 35 36 37 38 39 40 41 42 43 44 45 46 47 48 49 50
000
ASUS42 KCHS 081812
RWRCHS

REGIONAL WEATHER ROUNDUP
NATIONAL WEATHER SERVICE CHARLESTON SC
100 PM EST MON FEB 08 2016

NOTE: "FAIR" INDICATES FEW OR NO CLOUDS BELOW 12,000 FEET WITH NO
SIGNIFICANT WEATHER AND/OR OBSTRUCTIONS TO VISIBILITY.

NOT ALL STATIONS ARE QUALITY CONTROLLED BY THE NATIONAL
WEATHER SERVICE. USE DATA WITH CAUTION...ESPECIALLY
DEWPOINT OBSERVATIONS.

NOTICE: OBSERVATIONS FOR THE SAVANNAH-HILTON HEAD INTERNATIONAL AIRPORT
/KSAV/ HAVE BEEN TEMPORARILY REMOVED DUE TO AN ERRONEOUS TEMPERATURE
SENSOR. THE OBSERVATION WILL BE REINTRODUCED ONCE REPAIRS ARE COMPLETE.

SCZ027-030-031-034>040-042>050-081900-
...SOUTHEAST SOUTH CAROLINA...

CITY           SKY/WX    TMP DP  RH WIND       PRES   REMARKS
N CHARLESTON   MOSUNNY   60  27  28 SW13G23   29.80F
6HR MIN TEMP:  33; 6HR MAX TEMP:  61;

WATERFRONT PRK   N/A     57  31  37 W7        29.68F
MOUNT PLEASANT FAIR      59  32  36 SW9       29.82F
JOHNS ISLAND   FAIR      57  37  47 S14G21    29.82F
PINOPOLIS        N/A     55  32  41 SW13      29.73F
MONCKS CORNER  FAIR      57  27  30 W8        29.80F
SUMMERVILLE    FAIR      59  32  36 W15       29.81F
BEAUFORT MCAS  SUNNY     61  32  33 SW16G24   29.82F
6HR MIN TEMP:  33; 6HR MAX TEMP:  62;

BEAUFORT ARPT  FAIR      59  32  36 SW9       29.83F
HILTON HEAD IS SUNNY     59  34  38 SW9G23    29.85F
WALTERBORO     CLEAR     61  32  33 SW13G18   29.80F
ALLENDALE      FAIR      59  32  36 VRB6G14   29.78F

...SOUTHERN MIDLANDS AND PEE DEE...

CITY           SKY/WX    TMP DP  RH WIND       PRES   REMARKS
GEORGETOWN     NOT AVBL
KINGSTREE      NOT AVBL
ORANGEBURG     SUNNY     59  31  34 SW15G23   29.76F
6HR MIN TEMP:  32; 6HR MAX TEMP:  59;

BARNWELL       FAIR      59  34  38 S14       29.77F
AIKEN          FAIR      59  32  36 S15       29.76F
MANNING        FAIR      55  28  35 S12       29.78F
COLUMBIA       MOSUNNY   61  28  28 SW16G25   29.72F
6HR MIN TEMP:  29; 6HR MAX TEMP:  61;

SUMTER         SUNNY     59  31  34 S15G21    29.72F
6HR MIN TEMP:  30; 6HR MAX TEMP:  59;

FLORENCE       SUNNY     56  29  35 SW14G22   29.75F
6HR MIN TEMP:  29; 6HR MAX TEMP:  56;

MYRTLE BEACH   SUNNY     54  34  47 S12       29.82F
N MYRTLE BEACH SUNNY     53  40  61 S14       29.80F
6HR MIN TEMP:  34; 6HR MAX TEMP:  53;


$$

GAZ063-065-086>088-099>101-113>116-118-119-134>141-150-081900-
...SOUTHEAST GEORGIA...

CITY           SKY/WX    TMP DP  RH WIND       PRES   REMARKS
SAVANNAH ARPT  MOSUNNY   62  29  28 SW14G24   29.83F
6HR MIN TEMP:  34; 6HR MAX TEMP:  62;

HUNTER AAF     SUNNY     62  32  33 W14G23    29.81F
6HR MIN TEMP:  32; 6HR MAX TEMP:  62;

FORT STEWART   SUNNY     61  30  31 SW18G28   29.82F
6HR MIN TEMP:  33; 6HR MAX TEMP:  61;

STATESBORO     SUNNY     64  20  19 W14G21    29.81F
SYLVANIA       CLEAR     60  36  40 W10G21    29.81F
CLAXTON        FAIR      61  37  41 S12G18    29.84F

...CSRA...CENTRAL AND FAR SOUTHEAST GEORGIA...

CITY           SKY/WX    TMP DP  RH WIND       PRES   REMARKS
THOMSON        CLOUDY    57  36  45 W9G16     29.81F
AUGUSTA-BUSH   SUNNY     61  31  32 SW16G22   29.74F
6HR MIN TEMP:  31; 6HR MAX TEMP:  61;

AUGUSTA-DANIEL MOSUNNY   61  31  32 S16G22    29.73F
SWAINSBORO     FAIR      61  32  33 SW14G21   29.79F
VIDALIA        SUNNY     61  32  33 SW17G25   29.81F
EASTMAN        FAIR      62  32  31 SW10G24   29.83F
HAZLEHURST     FAIR      62  33  34 SW18G25   29.82F
ALMA           SUNNY     60  34  37 SW16G23   29.85F
6HR MIN TEMP:  34; 6HR MAX TEMP:  60;

WAYCROSS       SUNNY     64  37  36 W15G24    29.87F
JESUP          FAIR      63  34  34 W14G23    29.86F
BAXLEY         FAIR      61  34  36 W12G18    29.84F
BRUNSWICK      SUNNY     63  32  31 SW24      29.89F
SAINT SIMONS   SUNNY     61  29  29 MISG      29.88F
6HR MIN TEMP:  40; 6HR MAX TEMP:  61;


$$

SCZ027-028-034-036>038-045-046-048>050-GAZ119-141-081900-
...LAKE AND SUPPLEMENTAL COASTAL OBSERVATIONS...

STATION/POSITION TIME  TEMP    WIND        PRES    WAVE   SWELL
                       AIR SEA DIR/SP/G            HT/PER HT/PER/DIR
                 (UTC) (F)     (DEG/KT/KT) (MB)    (FT/S) (FT/S/D)
WINYAH BAY       NOT AVBL
LAKE MURRAY      1700   54     210/ 10/ 13 1007.5F
ACE BASIN NERRS  1645   55     230/  3     1012.0
FORT PULASKI     1700   56 52  220/  7/ 12 1012.1F
SAPELO ISLAND    1700   57     230/ 14     1013.0F

$$

ANZ835-935-AMZ111-154-330-350-352-354-370-450-454-472-081900-
...C-MAN AND BUOY OBSERVATIONS...

STATION/POSITION TIME  TEMP    WIND        PRES    WAVE   SWELL
                       AIR SEA DIR/SP/G            HT/PER HT/PER/DIR
                 (UTC) (F)     (DEG/KT/KT) (MB)    (FT/S) (FT/S/D)
BUOY 41004       1750   57 65  230/ 17/ 23 1010.1F   6/15   3/15
BUOY 41008       1750   53 55  220/ 17/ 19 1012.2F   3/ 4   2/320/16
FOLLY BEACH CMAN 1800   53     220/ 15/ 17 1010.1F
CAPERS NEARSHORE 1708   51     240/ 16/ 19 1010.6F
FRIPP NEARSHORE  1700   52     230/ 16/ 17 1011.5F


STATION/POSITION TIME  TEMP    WIND        PRES    WAVE   SWELL
                       AIR SEA DIR/SP/G            HT/PER HT/PER/DIR
                 (UTC) (F)     (DEG/KT/KT) (MB)    (FT/S) (FT/S/D)
5E ST. MARYS GA  1721      55                N/A     3/17   2/100/17
FRYING PAN BUOY  1700   51 60   CALM  /  4 1011.0F
BUOY 41025       1750   44 52  310/ 10/ 12 1008.4F  14/15  13/ 70/15
CAPE LOOKOUT NC  NOT AVBL
BUOY 41002       1750   59 69  290/ 19/ 23   N/A    15/11  11/340/11
BUOY 41010       1720   62 73              1016.0F
ST AUGUSTINE FL  1800   59 58  240/ 13/ 17 1014.9F


$$



USA.gov is the U.S. government's official web portal to all federal, state and local government web resources and services.